When you browse on this site, cookies collect data to enhance your experience and personalize the content and advertising you see.
Visit our Privacy Policy to learn more. By continuing to use the site, you agree to this use of cookies and data.
  • In United Kingdom
  • List of Countries
  • For 7 days
  • Water Temperature
  • Satellite Maps
  • Weather Map
  • Weather Widgets
  • user-avatar
    Login

    Hourly Weather Aliabad

    Today, 20 May, Monday

    Time Temperature Precipitation Wind Pressure Humidity
    00:00 +24°C° 0.4 mm 2 mps 737 mmHg 42%
    01:00 +23°C° 0.2 mm 2 mps 737 mmHg 43%
    02:00 +23°C° 0.2 mm 2 mps 737 mmHg 44%
    03:00 +21°C° 0 mm 2 mps 736 mmHg 48%
    04:00 +22°C° 0.2 mm 1 mps 737 mmHg 48%
    05:00 +23°C° 0.2 mm 1 mps 737 mmHg 48%
    06:00 +23°C° 0.2 mm 1 mps 737 mmHg 48%
    07:00 +25°C° 0.2 mm 1 mps 737 mmHg 42%
    08:00 +27°C° 0.2 mm 1 mps 737 mmHg 37%
    09:00 +28°C° 0.2 mm 1 mps 738 mmHg 31%
    10:00 +29°C° 0.2 mm 2 mps 738 mmHg 30%
    11:00 +30°C° 0.2 mm 2 mps 738 mmHg 28%
    12:00 +30°C° 0.2 mm 2 mps 738 mmHg 27%
    13:00 +30°C° 0 mm 3 mps 738 mmHg 28%
    14:00 +30°C° 0 mm 3 mps 738 mmHg 29%
    15:00 +30°C° 0 mm 3 mps 738 mmHg 30%
    16:00 +29°C° 0.1 mm 3 mps 738 mmHg 34%
    17:00 +28°C° 0.1 mm 2 mps 738 mmHg 38%
    18:00 +27°C° 0.1 mm 2 mps 738 mmHg 43%
    19:00 +25°C° 0.7 mm 2 mps 739 mmHg 48%
    20:00 +24°C° 0.7 mm 2 mps 739 mmHg 53%
    21:00 +21°C° 0.7 mm 2 mps 740 mmHg 57%
    22:00 +20°C° 0.1 mm 2 mps 740 mmHg 62%
    23:00 +21°C° 0.1 mm 1 mps 740 mmHg 66%

    Tomorrow, 21 May, Tuesday

    Time Temperature Precipitation Wind Pressure Humidity
    00:00 +20°C° 0.1 mm 1 mps 740 mmHg 70%
    01:00 +20°C° 0.1 mm 1 mps 740 mmHg 70%
    02:00 +19°C° 0.1 mm 1 mps 740 mmHg 70%
    03:00 +19°C° 0.1 mm 1 mps 741 mmHg 69%
    04:00 +20°C° 0.1 mm 1 mps 741 mmHg 67%
    05:00 +20°C° 0.1 mm 1 mps 741 mmHg 65%
    06:00 +21°C° 0.1 mm 1 mps 741 mmHg 63%
    07:00 +21°C° 0.2 mm 1 mps 742 mmHg 58%
    08:00 +21°C° 0.2 mm 2 mps 742 mmHg 53%
    09:00 +23°C° 0.2 mm 2 mps 742 mmHg 48%
    10:00 +24°C° 0.1 mm 2 mps 743 mmHg 46%
    11:00 +25°C° 0.1 mm 3 mps 743 mmHg 44%
    12:00 +26°C° 0.1 mm 3 mps 743 mmHg 42%
    13:00 +27°C° 0 mm 3 mps 743 mmHg 41%
    14:00 +27°C° 0 mm 3 mps 742 mmHg 41%
    15:00 +27°C° 0 mm 3 mps 742 mmHg 40%
    16:00 +26°C° 0 mm 3 mps 742 mmHg 43%
    17:00 +25°C° 0 mm 3 mps 742 mmHg 47%
    18:00 +24°C° 0 mm 3 mps 742 mmHg 50%
    19:00 +22°C° 0 mm 3 mps 743 mmHg 54%
    20:00 +20°C° 0 mm 3 mps 743 mmHg 58%
    21:00 +19°C° 0 mm 2 mps 743 mmHg 61%
    22:00 +18°C° 0 mm 2 mps 743 mmHg 63%
    23:00 +17°C° 0 mm 2 mps 743 mmHg 65%

    Day after tomorrow, 22 May, Wednesday

    Time Temperature Precipitation Wind Pressure Humidity
    00:00 +16°C° 0 mm 2 mps 743 mmHg 67%
    01:00 +16°C° 0 mm 2 mps 743 mmHg 66%
    02:00 +15°C° 0 mm 2 mps 743 mmHg 66%
    03:00 +15°C° 0 mm 2 mps 743 mmHg 66%
    04:00 +16°C° 0 mm 1 mps 742 mmHg 62%
    05:00 +18°C° 0 mm 1 mps 742 mmHg 58%
    06:00 +17°C° 0 mm 0 mps 742 mmHg 54%
    07:00 +20°C° 0 mm 1 mps 742 mmHg 49%
    08:00 +22°C° 0 mm 1 mps 741 mmHg 44%
    09:00 +23°C° 0 mm 2 mps 741 mmHg 39%
    10:00 +24°C° 0 mm 2 mps 740 mmHg 37%
    11:00 +25°C° 0 mm 2 mps 740 mmHg 35%
    12:00 +26°C° 0 mm 2 mps 739 mmHg 33%
    13:00 +26°C° 0 mm 2 mps 739 mmHg 34%
    14:00 +25°C° 0 mm 1 mps 739 mmHg 35%
    15:00 +25°C° 0 mm 1 mps 738 mmHg 35%
    16:00 +24°C° 0.1 mm 2 mps 738 mmHg 39%
    17:00 +24°C° 0.1 mm 2 mps 738 mmHg 43%
    18:00 +22°C° 0.1 mm 3 mps 738 mmHg 48%
    19:00 +20°C° 0.3 mm 3 mps 739 mmHg 53%
    20:00 +19°C° 0.3 mm 2 mps 739 mmHg 59%
    21:00 +19°C° 0.3 mm 1 mps 739 mmHg 64%
    22:00 +17°C° 0 mm 2 mps 739 mmHg 65%
    23:00 +17°C° 0 mm 2 mps 739 mmHg 65%

    23 May, Thursday

    Time Temperature Precipitation Wind Pressure Humidity
    00:00 +16°C° 0 mm 2 mps 739 mmHg 65%
    01:00 +16°C° 0 mm 2 mps 739 mmHg 62%
    02:00 +16°C° 0 mm 2 mps 739 mmHg 59%
    03:00 +15°C° 0 mm 2 mps 738 mmHg 56%
    04:00 +16°C° 0 mm 2 mps 738 mmHg 55%
    05:00 +17°C° 0 mm 2 mps 739 mmHg 54%
    06:00 +18°C° 0 mm 2 mps 739 mmHg 52%
    07:00 +20°C° 0 mm 2 mps 739 mmHg 47%
    08:00 +22°C° 0 mm 3 mps 739 mmHg 43%
    09:00 +25°C° 0 mm 3 mps 739 mmHg 38%
    10:00 +26°C° 0 mm 3 mps 738 mmHg 34%
    11:00 +27°C° 0 mm 4 mps 738 mmHg 30%
    12:00 +28°C° 0 mm 4 mps 738 mmHg 26%
    13:00 +28°C° 0 mm 4 mps 738 mmHg 25%
    14:00 +28°C° 0 mm 4 mps 738 mmHg 24%
    15:00 +28°C° 0 mm 4 mps 737 mmHg 23%
    16:00 +27°C° 0 mm 3 mps 738 mmHg 24%
    17:00 +26°C° 0 mm 3 mps 738 mmHg 25%
    18:00 +25°C° 0 mm 3 mps 738 mmHg 26%
    19:00 +22°C° 0 mm 3 mps 738 mmHg 25%
    20:00 +21°C° 0 mm 2 mps 739 mmHg 23%
    21:00 +19°C° 0 mm 2 mps 739 mmHg 21%
    22:00 +18°C° 0 mm 2 mps 740 mmHg 20%
    23:00 +18°C° 0 mm 2 mps 740 mmHg 19%

    24 May, Friday

    Time Temperature Precipitation Wind Pressure Humidity
    00:00 +17°C° 0 mm 2 mps 740 mmHg 18%
    01:00 +17°C° 0 mm 2 mps 740 mmHg 20%
    02:00 +16°C° 0 mm 2 mps 740 mmHg 23%
    03:00 +15°C° 0 mm 1 mps 740 mmHg 26%
    04:00 +16°C° 0 mm 1 mps 740 mmHg 28%
    05:00 +18°C° 0 mm 1 mps 740 mmHg 29%
    06:00 +19°C° 0 mm 1 mps 740 mmHg 30%
    07:00 +21°C° 0 mm 1 mps 740 mmHg 29%
    08:00 +23°C° 0 mm 2 mps 740 mmHg 28%
    09:00 +24°C° 0 mm 2 mps 740 mmHg 27%
    10:00 +26°C° 0 mm 2 mps 739 mmHg 25%
    11:00 +27°C° 0 mm 2 mps 739 mmHg 23%
    12:00 +28°C° 0 mm 2 mps 739 mmHg 21%
    13:00 +28°C° 0 mm 2 mps 739 mmHg 20%
    14:00 +29°C° 0 mm 2 mps 738 mmHg 20%
    15:00 +29°C° 0 mm 2 mps 738 mmHg 19%
    16:00 +29°C° 0 mm 2 mps 738 mmHg 22%
    17:00 +28°C° 0 mm 1 mps 738 mmHg 24%
    18:00 +27°C° 0 mm 1 mps 739 mmHg 27%
    19:00 +25°C° 0 mm 2 mps 739 mmHg 26%
    20:00 +23°C° 0 mm 2 mps 739 mmHg 24%
    21:00 +20°C° 0 mm 2 mps 739 mmHg 23%
    22:00 +20°C° 0 mm 2 mps 739 mmHg 26%
    23:00 +20°C° 0 mm 2 mps 739 mmHg 28%

    25 May, Saturday

    Time Temperature Precipitation Wind Pressure Humidity
    00:00 +19°C° 0 mm 2 mps 739 mmHg 30%
    01:00 +19°C° 0 mm 2 mps 739 mmHg 35%
    02:00 +19°C° 0 mm 2 mps 739 mmHg 40%
    03:00 +20°C° 0 mm 1 mps 739 mmHg 45%
    04:00 +20°C° 0 mm 1 mps 739 mmHg 45%
    05:00 +21°C° 0 mm 1 mps 739 mmHg 45%
    06:00 +22°C° 0 mm 1 mps 739 mmHg 45%
    07:00 +25°C° 0 mm 2 mps 739 mmHg 40%
    08:00 +27°C° 0 mm 2 mps 739 mmHg 35%
    09:00 +29°C° 0 mm 2 mps 738 mmHg 30%
    10:00 +30°C° 0 mm 2 mps 738 mmHg 28%
    11:00 +31°C° 0 mm 2 mps 737 mmHg 26%
    12:00 +34°C° 0 mm 2 mps 737 mmHg 25%
    13:00 +34°C° 0 mm 3 mps 737 mmHg 24%
    14:00 +35°C° 0 mm 3 mps 736 mmHg 23%
    15:00 +35°C° 0 mm 3 mps 736 mmHg 23%
    16:00 +34°C° 0 mm 3 mps 736 mmHg 27%
    17:00 +32°C° 0 mm 2 mps 736 mmHg 31%
    18:00 +30°C° 0 mm 2 mps 736 mmHg 36%
    19:00 +29°C° 0.1 mm 2 mps 737 mmHg 38%
    20:00 +27°C° 0.1 mm 2 mps 737 mmHg 40%
    21:00 +26°C° 0.1 mm 2 mps 737 mmHg 43%
    22:00 +25°C° 0.2 mm 2 mps 737 mmHg 43%
    23:00 +25°C° 0.2 mm 2 mps 737 mmHg 44%
    Show more